Location: Newark
(30.1000°N, 109.4667°E)
Time: 15:18:14
(UTC+00:00)

SR - Pass Details

Date: 21 February 2020
Orbit: 578 x 878 km, 66.7° (Epoch: 31 March)

Event Time Altitude Azimuth Distance (km) Brightness Sun altitude
Rises 19:05:10 0° 307° (NW) 3,122 - -54.1°
Reaches altitude 10° 19:10:13 10° 263° (W) 2,093 - -53.1°
Maximum altitude 19:10:34 10° 258° (WSW) 2,081 - -53.1°
Drops below altitude 10° 19:10:54 10° 254° (WSW) 2,079 - -53.0°
Sets 19:15:40 0° 208° (SSW) 2,893 - -52.1°
